Location: Nairn
(57.5833°N, 3.8667°W)
Time: 01:37:54
(UTC+00:00)

Tiros 1 despin weight - Pass Details

Date: 28 November 2020
Orbit: 594 x 641 km, 48.2° (Epoch: 22 January)

Event Time Altitude Azimuth Distance (km) Brightness Sun altitude
Rises 17:37:46 0° 265° (W) 2,945 ? -14.6°
Reaches altitude 10° 17:40:59 10° 242° (WSW) 2,029 ? -15.1°
Maximum altitude 17:43:35 15° 208° (SSW) 1,719 ? -15.4°
Drops below altitude 10° 17:46:11 10° 174° (S) 2,014 ? -15.7°
Sets 17:49:23 0° 151° (SSE) 2,910 ? -16.1°
